OCULUS-ASR SPHERE 1 (44376 NORAD) Tracking and Keplerian Element Data

This shows tracking and keplerian element data for the satellite.

Feedback or suggestion? Click here.




ElementValue
Catalog44376
NameOCULUS-ASR SPHERE 1
Epoch Orbit148
Epoch Day192.05694932
Epoch Year2019
RAAN97.4674
Inclination28.5226
Eccentricity0.0331378
Argument of Perigee272.3941
Mean Anonmoly83.9157
Mean Motion15.10513624
Decay Rate0.00562413
L11 44376U 19036AA 19192.05694932 .00562413 00000-0 79727-2 0 9998
L22 44376 28.5226 97.4674 0331378 272.3941 83.9157 15.10513624 1485

Live tracking and technical data element details for OCULUS-ASR SPHERE 1 (NORAD 44376). OCULUS-ASR SPHERE 1 can be tracked NOW for your location showing map with azimuth and elevation plus other details from your city location.

Track the satellite on the map from your city or location and see movement details for azimuth, elevation, latitude, longitude, range, height, and movement on the map or in text.







IsCatalogInMostPopularTable: catalog: 44376, numindb: 3
Update: records affected: 1



GetName: 44376 OCULUS-ASR SPHERE 1

Hit Count: updated at: Fri, 19 Jul 2019 07:56:20 GMT